Regional Weather Roundup
Issued by NWS

Home | Current Version | Previous Version | Text Only | Print | Product List | Glossary Off
Versions: 1 2 3 4 5 6 7 8 9 10 11 12 13 14 15 16 17 18 19 20 21 22 23 24 25 26 27 28 29 30 31 32 33 34 35 36 37 38 39 40 41 42 43 44 45 46 47 48 49 50

174
ASUS43 KLSX 221910
RWRMO

WEATHER SUMMARY FOR MISSOURI
NATIONAL WEATHER SERVICE SPRINGFIELD MO
100 PM CST SUN JAN 22 2017

NOTE: "FAIR" INDICATES FEW OR NO CLOUDS BELOW 12,000 FEET WITH NO
       SIGNIFICANT WEATHER AND/OR OBSTRUCTIONS TO VISIBILITY.
       CURRENT SKY AND/OR WEATHER CONDITIONS ARE NOT AVAILABLE FOR
       CHILLICOTHE AND FARMINGTON.

MOZ001>031-035>038-043-044-053-054-222000-
...NORTHERN AND WESTERN MISSOURI...

CITY           SKY/WX    TMP DP  RH WIND       PRES   REMARKS
KANSAS CTY INT CLOUDY    35  29  78 NW16      29.71F WCI  25
KANSAS C DTWN  CLOUDY    36  32  85 N15       29.72R WCI  27
LEE`S SUMMIT   CLOUDY    41  37  86 NW16      29.68F
ST JOSEPH      CLOUDY    34  33  96 N13       29.76F WCI  25
CHILLICOTHE      N/A     35  32  88 NW9G18    29.71F WCI  28
KIRKSVILLE     CLOUDY    35  35 100 N12       29.67F FOG     WCI  27

$$
MOZ066>068-077>081-088>096-101>105-222000-
...SOUTHWEST MISSOURI...

CITY           SKY/WX    TMP DP  RH WIND       PRES   REMARKS
SPRINGFIELD    LGT RAIN  46  43  89 N20G32    29.54R FOG
JOPLIN         LGT RAIN  45  44  97 N16G24    29.62R
BRANSON        LGT RAIN  48  48 100 N18G25    29.47R FOG

$$
MOZ032>034-039>042-045>050-055>058-069>072-222000-
...CENTRAL MISSOURI...

CITY           SKY/WX    TMP DP  RH WIND       PRES   REMARKS
COLUMBIA       LGT RAIN  47  41  80 N20       29.57F
JEFFERSON CITY LGT RAIN  47  40  76 NW12      29.58R
ROLLA          CLOUDY    46  44  93 N15       29.50S FOG
SEDALIA        LGT RAIN  46  43  89 N16       29.62F
WHITEMAN AFB   LGT RAIN  45  45 100 N17G26    29.61F FOG
WARRENSBURG    DRIZZLE   43  41  93 N15       29.65S
OSAGE BEACH    LGT RAIN  45  41  86 N9        29.56F

$$
MOZ051-052-059>065-222000-
...EAST CENTRAL MISSOURI...

CITY           SKY/WX    TMP DP  RH WIND       PRES   REMARKS
ST LOUIS INTL  CLOUDY    51  45  79 N16       29.50F
SPIRIT OF STL  CLOUDY    50  46  86 N8        29.51S FOG
ST CHARLES     CLOUDY    50  46  86 N12G22    29.52F

$$
MOZ072>076-082>087-097>100-106>115-222000-
...SOUTH CENTRAL AND SOUTHEAST MISSOURI...

CITY           SKY/WX    TMP DP  RH WIND       PRES   REMARKS
CAPE GIRARDEAU CLOUDY    61  52  72 N9        29.38F
FARMINGTON     CLOUDY    57  49  74 N10       29.44F
POPLAR BLUFF   CLOUDY    59  54  83 NE14      29.36F
WEST PLAINS    LGT RAIN  51  49  92 N12       29.43S

$$




USA.gov is the U.S. government's official web portal to all federal, state and local government web resources and services.